This is the latest recevied weather packets stored in our database for station/object WA4IKQ. If no packets are shown the sender has not sent any weather packets the latest 10 day(s).
| Time | Temp. | Humidity | Pressure | Rain* | Wind** | Luminosity | Snow |
|---|---|---|---|---|---|---|---|
| 1777818268 | 21.11° C | 77% | 1017.4 hPa | 0 mm | 4.02 m/s, 15° | - | - |
| 1777817968 | 21.11° C | 78% | 1017.5 hPa | 0 mm | 1.79 m/s, 301° | - | - |
| 1777817873 | 20.56° C | 79% | 1017.5 hPa | 0 mm | 1.79 m/s, 53° | - | - |
| 1777817668 | 20.56° C | 79% | 1017.5 hPa | 0 mm | 1.79 m/s, 53° | - | - |
| 1777817369 | 20.56° C | 79% | 1017.4 hPa | 0 mm | 3.13 m/s, 345° | - | - |
| 1777817071 | 20° C | 82% | 1017.4 hPa | 0 mm | 3.13 m/s, 302° | - | - |
| 1777817066 | 20.56° C | 80% | 1017.4 hPa | 0 mm | 1.34 m/s, 20° | - | - |
| 1777816768 | 20° C | 82% | 1017.4 hPa | 0 mm | 3.13 m/s, 302° | - | - |
| 1777816687 | 20° C | 82% | 1017.3 hPa | 0 mm | 1.34 m/s, 326° | - | - |
| 1777816468 | 20° C | 82% | 1017.3 hPa | 0 mm | 1.34 m/s, 326° | - | - |
| 1777816168 | 20° C | 82% | 1017.3 hPa | 0 mm | 1.34 m/s, 1° | - | - |
| 1777816088 | 20° C | 83% | 1017.3 hPa | 0 mm | 3.58 m/s, 311° | - | - |
| 1777815871 | 20° C | 84% | 1017.2 hPa | 0 mm | 1.34 m/s, 3° | - | - |
| 1777815869 | 20° C | 83% | 1017.3 hPa | 0 mm | 3.58 m/s, 311° | - | - |
| 1777815569 | 20° C | 84% | 1017.2 hPa | 0 mm | 1.34 m/s, 3° | - | - |
| 1777815268 | 19.44° C | 85% | 1017.1 hPa | 0 mm | 1.79 m/s, 349° | - | - |
| 1777815187 | 19.44° C | 85% | 1017.1 hPa | 0 mm | 1.34 m/s, 316° | - | - |
| 1777814970 | 19.44° C | 85% | 1017.1 hPa | 0 mm | 1.34 m/s, 316° | - | - |
| 1777814887 | 19.44° C | 85% | 1017.1 hPa | 0 mm | 3.13 m/s, 333° | - | - |
| 1777814668 | 18.89° C | 86% | 1017 hPa | 0 mm | 0.89 m/s, 304° | - | - |
| 1777814666 | 19.44° C | 85% | 1017.1 hPa | 0 mm | 3.13 m/s, 333° | - | - |
| 1777814402 | 18.89° C | 86% | 1016.9 hPa | 0 mm | 1.34 m/s, 11° | - | - |
| 1777814367 | 18.89° C | 86% | 1017 hPa | 0 mm | 0.89 m/s, 304° | - | - |
| 1777814066 | 18.89° C | 86% | 1016.9 hPa | 0 mm | 1.34 m/s, 11° | - | - |
| 1777814048 | 18.89° C | 86% | 1017 hPa | 0 mm | 0.45 m/s, 326° | - | - |
* Rain latest hour (hover to see other rain measurements)
** Current wind speed in m/s (hover to see current wind gust speed)